Theta_e
321 325 326 327 325 324 330 329 330 337 334 326 330 330 323 325 329 331 333 333 335 331 332 336 335 335 335 340 342 342 341 344 345 346 349 342 337 338 340 341 342 341 340 337 336 334 333 333 333 335 335 335 339 340 341 341 341 341 341 340 339 337 336 334 332 330 328 330 331 330 330 330 331 331 331 332 332 332 332 332 332 332 332 332 331 331 331 329 328 329 329 329 328 328 327 327 327
323 327 327 327 325 324 335 330 326 333 334 327 325 325 323 329 334 335 336 335 335 332 336 338 338 336 334 337 340 346 344 341 341 343 342 337 337 340 341 342 341 341 340 338 336 334 334 334 333 333 332 332 336 339 340 340 341 341 341 340 340 338 336 334 331 331 330 330 331 331 330 331 331 331 332 332 332 331 331 332 332 331 331 332 331 330 330 330 328 328 327 328 327 327 326 326 326
325 328 328 327 326 325 334 333 327 327 329 325 323 326 327 332 333 334 335 334 334 335 337 336 337 336 335 337 338 349 347 338 338 340 338 337 339 340 342 342 341 341 341 339 337 335 334 334 333 331 331 330 334 338 339 340 341 341 341 341 340 338 336 334 332 332 330 329 330 330 330 331 331 332 332 332 332 331 331 332 332 332 332 332 332 331 330 330 329 328 327 327 327 326 326 326 326
327 328 329 326 328 333 336 333 330 326 325 325 323 327 331 333 333 333 333 333 335 335 334 334 338 336 333 337 337 344 344 339 338 338 338 338 339 340 342 342 341 341 341 339 337 336 334 334 333 330 330 330 331 335 338 339 340 340 341 341 340 338 337 335 333 331 330 329 330 330 331 331 331 332 332 331 330 331 332 332 331 332 332 332 331 331 330 330 329 328 327 327 326 326 325 325 325
329 330 329 325 329 336 334 331 336 329 322 327 325 326 332 333 333 333 333 334 336 334 331 334 339 336 334 335 337 343 342 340 338 337 338 337 339 339 341 342 341 341 341 340 339 339 336 334 333 331 331 330 330 333 337 337 337 339 340 339 339 338 337 335 333 330 328 329 331 331 332 332 331 331 331 330 330 331 332 331 331 331 331 331 331 330 330 330 329 328 327 327 327 326 325 324 323
330 331 328 327 328 330 331 329 335 332 324 330 326 326 333 331 332 334 335 334 336 336 333 333 333 334 337 336 337 340 339 340 339 337 338 338 339 339 340 341 341 342 341 341 341 340 339 336 333 332 331 330 329 331 335 336 337 337 338 338 338 338 337 335 333 330 328 330 332 331 332 331 330 329 330 330 330 331 330 330 330 330 331 330 330 330 329 329 329 328 327 326 326 325 324 323 323
330 332 334 335 334 329 331 329 332 334 325 329 328 328 332 330 332 335 335 335 334 333 331 332 330 333 337 337 340 338 337 339 339 338 338 338 339 339 340 340 340 341 341 341 341 340 340 337 335 333 331 330 329 328 331 335 337 337 336 335 336 336 336 335 334 332 330 332 333 332 331 330 329 328 330 331 330 330 329 329 330 330 330 330 329 330 329 329 328 328 327 326 326 325 324 323 322
330 331 335 336 338 335 334 333 336 335 323 326 328 329 332 330 332 334 335 334 332 330 329 330 330 334 336 340 344 339 337 339 338 339 338 338 339 339 339 340 340 341 341 341 341 340 340 338 335 333 331 330 330 327 329 333 335 335 335 332 332 333 333 333 333 332 332 333 333 333 332 330 329 329 329 330 330 330 328 328 329 330 330 329 329 329 329 329 328 328 326 326 326 324 323 322 322
329 330 334 334 337 340 338 336 336 332 324 327 328 329 331 331 331 331 331 328 328 330 328 329 332 333 335 341 342 337 337 339 338 338 337 338 339 339 339 339 339 340 341 341 341 340 339 337 335 333 331 330 330 328 328 332 334 334 334 332 332 331 329 330 332 331 331 333 334 334 333 330 329 329 328 329 329 329 329 329 329 329 329 329 329 329 328 328 328 327 327 326 324 322 322 321 322
331 330 334 338 339 337 337 339 336 330 325 326 327 329 330 329 330 329 327 324 325 329 327 327 329 329 335 341 340 338 338 338 338 338 339 339 339 339 339 339 339 340 340 341 340 340 338 337 335 333 332 331 330 329 328 331 334 334 333 333 333 331 327 329 331 329 330 333 334 334 333 331 330 328 327 327 328 329 329 329 329 328 329 328 328 328 328 328 327 327 326 325 322 322 321 320 320
338 338 335 338 338 335 336 341 338 328 324 325 326 328 330 329 329 327 325 323 327 333 327 325 326 327 338 343 341 338 337 338 338 337 338 337 338 338 338 339 339 339 340 340 340 339 339 337 335 333 332 331 330 330 327 329 333 333 333 332 333 331 329 332 331 329 331 332 333 334 334 333 331 328 325 326 327 327 327 328 328 328 328 328 328 328 328 328 327 326 325 322 321 321 320 319 319
339 345 338 336 339 338 339 341 336 327 324 326 325 328 330 330 328 327 326 322 328 333 327 327 328 326 337 344 341 337 335 338 338 338 338 337 338 338 338 339 339 339 339 339 339 339 338 337 336 334 333 332 331 329 326 329 334 333 333 332 332 332 331 333 331 331 332 332 333 334 334 333 333 330 327 327 327 326 325 326 327 326 326 327 327 327 327 327 326 326 324 321 321 321 320 320 320
337 341 336 337 341 339 338 339 338 334 330 329 327 328 330 329 329 328 326 323 325 330 326 326 327 327 338 343 340 337 336 337 338 338 337 337 338 338 338 339 339 339 339 338 338 338 338 337 336 335 334 333 332 330 326 327 331 332 332 332 332 332 332 332 331 331 331 331 333 334 334 333 333 332 330 329 328 327 326 326 325 324 324 326 327 326 326 327 326 325 321 321 321 320 320 320 320
334 337 333 337 342 338 338 338 342 339 333 332 328 328 329 328 329 327 327 327 328 330 326 323 325 331 339 342 340 339 339 337 339 338 337 338 338 338 339 339 339 339 339 338 338 338 338 337 336 336 334 333 332 331 329 327 328 329 330 331 332 332 332 332 331 331 330 329 329 331 332 332 333 332 331 330 330 329 327 327 326 324 324 325 326 326 326 326 326 323 320 321 320 319 320 320 320
333 338 334 337 341 340 340 338 341 338 331 334 330 329 332 328 328 328 329 332 330 329 325 323 326 329 334 344 345 340 339 338 339 338 338 338 337 339 339 339 339 339 339 338 339 338 338 338 337 336 335 334 332 331 331 329 328 328 328 330 331 331 332 332 331 331 330 328 327 327 328 328 331 332 331 331 331 329 328 327 326 325 324 323 324 325 326 326 325 321 319 320 320 320 320 320 319
334 340 337 336 339 338 340 339 339 337 331 333 330 331 334 328 329 329 327 330 328 325 324 323 325 327 332 345 345 337 338 339 339 339 338 338 338 338 338 338 339 339 339 338 339 338 339 339 338 337 336 335 333 332 332 331 330 329 328 328 330 331 331 331 331 331 330 329 327 326 326 325 327 331 331 331 331 330 329 328 326 326 324 323 323 323 324 325 324 320 319 320 320 320 320 320 319
337 341 339 337 340 338 342 339 333 335 332 330 329 331 334 328 327 327 324 328 328 326 327 325 324 330 338 341 340 337 339 339 338 338 338 338 338 338 338 338 338 339 338 338 339 339 339 339 338 338 337 336 334 333 334 332 331 330 329 328 328 329 330 331 330 331 330 330 329 327 327 325 324 327 329 330 330 329 329 328 327 326 325 324 323 323 323 323 323 320 319 320 320 320 320 321 320
338 343 339 338 342 339 339 333 326 332 330 328 328 329 333 329 327 326 324 326 327 326 326 329 331 332 337 338 338 339 338 338 339 338 338 337 337 338 338 338 338 338 338 337 338 339 339 338 338 338 337 337 335 335 335 334 333 332 331 329 328 328 329 330 330 330 329 329 329 328 327 325 324 325 327 328 328 328 328 328 327 326 325 325 323 323 323 322 321 319 319 320 320 320 321 321 321
339 342 339 342 345 339 334 327 324 327 325 327 327 326 330 330 328 325 325 326 326 328 325 330 336 334 336 338 337 338 338 338 338 338 338 337 337 338 338 338 338 338 337 337 336 337 338 338 338 338 338 336 335 336 335 335 334 333 332 331 329 328 328 328 329 329 328 328 328 328 327 325 324 324 325 327 327 328 328 327 327 326 325 325 324 322 321 321 320 319 319 320 320 321 322 322 322
339 339 340 346 345 337 330 324 323 324 324 325 324 325 327 327 327 325 325 326 326 329 327 329 334 334 337 339 336 337 338 337 338 337 337 337 337 337 337 338 338 338 338 337 336 337 338 338 338 338 338 337 336 336 336 335 335 334 334 332 331 329 327 327 328 328 327 327 326 326 326 325 325 326 326 327 328 328 327 327 326 326 325 324 325 324 322 320 319 319 319 320 320 321 322 323 322
336 336 341 347 342 335 328 322 322 324 326 325 323 325 324 323 325 326 326 326 326 326 326 327 329 332 336 338 336 336 337 336 337 336 336 337 337 337 337 337 337 337 337 337 336 336 337 338 337 338 338 337 337 336 336 336 335 335 334 333 332 329 327 326 326 327 326 326 326 326 326 325 325 327 327 327 328 328 328 327 326 326 325 324 325 325 323 321 318 319 320 320 321 322 323 323 323
335 336 338 341 336 335 329 322 323 325 326 326 325 324 323 323 324 326 326 327 329 326 326 330 328 329 332 335 336 335 336 335 336 336 336 336 336 336 337 336 337 336 337 337 337 336 337 337 337 337 337 337 337 336 336 336 335 335 334 333 332 330 328 327 326 326 326 326 326 327 326 324 324 327 327 327 327 327 327 326 326 326 325 324 323 324 324 323 319 317 319 320 321 322 322 323 323
335 336 334 334 333 333 329 323 323 326 326 325 323 321 321 323 323 326 326 327 330 325 325 333 330 327 328 333 336 336 337 335 335 336 335 336 336 336 336 336 337 336 336 337 336 336 335 336 337 337 337 337 336 336 336 335 335 334 334 333 332 331 329 329 328 328 328 327 327 327 327 324 325 327 326 326 325 325 324 324 324 324 325 325 323 323 324 325 321 317 318 319 320 322 322 323 322
335 336 333 333 333 332 329 324 323 325 326 323 321 320 321 323 323 324 325 326 327 323 321 327 328 326 326 331 335 336 336 335 335 336 336 337 336 336 336 337 337 336 336 336 336 336 335 335 336 337 337 337 336 336 335 335 335 334 333 333 332 331 330 330 330 330 329 328 328 328 327 325 326 327 326 325 325 324 324 323 322 321 323 324 323 323 324 324 322 318 317 318 319 322 323 323 322
335 336 334 332 332 332 329 325 324 325 325 323 321 322 323 323 323 321 323 327 327 323 320 324 326 327 329 332 333 333 334 334 335 336 336 336 336 336 336 337 337 336 336 336 336 336 335 335 335 336 336 336 336 336 335 335 335 334 334 334 333 332 331 330 330 330 330 329 328 329 328 326 326 327 327 326 325 325 324 323 321 320 322 323 322 323 324 323 321 318 317 318 319 322 323 323 323
336 335 334 331 332 332 330 326 325 327 326 325 323 323 326 325 323 322 323 324 326 324 323 325 326 328 330 331 332 331 331 332 333 335 336 336 336 337 337 337 336 336 336 336 336 335 335 335 335 335 336 336 336 335 335 335 335 334 334 334 333 333 332 331 330 330 330 329 329 330 330 328 326 326 326 326 326 325 324 323 322 321 322 323 322 323 323 322 321 319 318 319 320 321 323 323 323
334 334 334 332 333 332 331 329 328 328 328 327 325 325 328 326 323 326 327 324 324 323 323 325 324 325 326 329 331 329 329 329 331 334 334 335 336 336 337 337 336 336 336 336 336 335 335 335 334 334 335 335 335 335 335 335 334 334 334 334 333 333 333 332 331 331 331 330 330 330 330 330 328 327 326 325 325 324 323 322 322 321 322 323 323 322 322 322 321 321 320 321 321 322 322 322 323
332 333 332 333 334 332 332 331 329 327 327 328 327 327 328 326 324 326 328 326 325 323 323 323 324 325 324 326 328 326 327 328 329 331 331 333 334 335 336 336 337 336 335 335 335 335 334 334 334 334 334 334 334 334 335 334 334 334 334 334 333 333 333 333 332 331 331 331 330 330 329 329 329 328 327 326 324 324 323 322 322 321 321 321 321 321 320 321 322 322 321 321 321 322 321 321 322
332 331 332 334 332 332 332 330 329 328 328 328 326 327 328 326 325 326 326 327 326 324 323 323 323 325 325 324 324 324 323 323 326 328 330 332 333 334 334 334 335 335 335 335 335 335 334 334 333 334 334 333 333 334 334 334 334 333 334 334 333 333 333 333 332 332 331 331 331 330 329 328 328 327 326 325 324 324 323 323 322 321 319 318 318 319 319 320 322 323 322 321 321 321 320 320 321
331 330 331 334 333 334 332 328 329 329 328 328 326 329 331 328 326 326 325 324 324 324 323 323 323 322 323 323 323 323 321 319 322 326 329 330 331 331 332 332 333 334 334 334 335 334 334 334 333 333 333 333 332 332 332 333 333 333 333 333 334 333 333 333 332 332 332 331 331 330 329 328 328 327 326 325 323 324 323 323 323 322 320 318 317 317 318 318 321 323 322 321 321 321 320 320 321
333 332 333 335 336 336 332 329 330 329 329 328 327 329 330 330 328 327 326 325 323 325 325 324 325 323 322 322 323 324 321 318 320 325 327 328 329 330 330 330 331 332 333 334 334 334 334 334 333 333 333 333 332 331 331 332 333 333 332 332 333 333 333 333 332 332 332 331 331 330 329 328 328 327 326 325 323 323 324 323 323 323 321 320 318 318 317 317 320 322 322 321 321 320 319 320 321
334 335 337 336 336 334 331 331 330 329 329 326 327 331 331 329 329 328 328 328 324 324 325 324 326 325 324 323 322 324 322 318 320 323 325 326 327 329 329 330 330 331 332 333 333 334 334 334 334 334 333 332 332 331 331 332 333 333 332 331 332 333 333 333 333 332 332 332 331 330 329 328 328 327 327 326 324 323 324 324 323 323 322 321 320 320 318 317 318 320 321 321 320 320 319 320 321
334 335 338 337 336 334 332 334 331 328 329 325 326 333 335 335 334 331 328 329 327 324 325 325 326 325 325 325 324 324 323 320 321 322 322 324 325 327 328 329 330 331 331 331 332 333 334 334 334 334 333 332 331 331 331 332 333 333 333 331 330 332 332 333 332 332 332 332 332 331 330 329 328 327 326 326 325 324 324 324 324 324 323 322 322 321 319 318 318 320 321 321 320 320 320 320 320
336 333 335 336 335 336 336 336 333 329 329 327 326 328 332 335 336 333 330 330 329 326 326 326 327 328 329 329 330 329 328 327 325 321 322 324 324 325 326 327 328 330 331 331 331 332 333 333 334 334 333 332 331 331 331 331 333 333 333 332 331 330 331 332 332 332 332 332 332 331 331 329 328 327 327 326 326 325 324 323 324 324 323 323 322 321 320 319 319 319 320 320 320 320 320 319 320
336 334 335 336 335 336 336 335 333 330 329 328 328 327 327 330 330 330 330 330 330 329 329 330 330 333 334 334 336 335 334 335 327 321 322 324 324 325 325 326 328 329 331 331 331 332 332 332 333 333 333 332 332 331 331 331 332 333 333 333 332 330 330 330 332 332 332 332 332 332 331 329 329 328 327 326 326 326 325 324 324 324 323 323 323 322 321 320 319 319 319 319 320 320 319 319 319
335 335 336 336 334 334 333 333 333 330 329 329 328 327 327 328 327 327 329 329 330 332 333 334 333 334 334 335 336 336 337 337 328 322 323 324 324 325 325 326 327 328 329 330 331 332 332 332 332 332 332 332 332 332 332 332 332 333 333 332 332 331 331 330 331 332 332 332 331 331 331 329 329 328 328 327 326 326 326 325 324 324 323 323 323 323 322 321 320 320 320 319 319 319 320 319 319
335 337 338 337 337 336 333 333 334 329 329 331 329 328 328 329 329 327 328 330 330 332 332 333 333 332 333 333 335 336 337 333 326 324 325 324 324 324 324 324 326 327 327 328 330 331 332 332 332 332 332 332 332 332 332 332 332 332 332 332 332 331 331 330 330 331 331 331 331 331 330 329 329 329 328 327 326 326 326 326 325 324 324 323 323 323 323 322 321 320 320 319 319 319 319 319 319
336 338 338 338 339 338 335 334 335 330 330 333 332 330 331 331 331 330 330 331 331 331 332 331 331 331 331 331 333 334 333 330 327 326 325 324 325 324 324 324 324 325 326 327 329 330 331 332 332 332 332 332 332 332 332 332 332 332 331 331 331 331 331 331 330 330 330 330 331 330 330 329 329 328 328 328 327 326 326 326 326 325 324 323 323 323 323 323 322 321 320 319 319 319 319 319 319
334 335 335 336 337 337 337 336 334 330 330 334 334 332 332 332 332 331 331 331 332 332 332 332 332 332 331 331 331 331 332 331 332 330 325 324 326 325 326 325 325 325 325 326 327 328 330 330 332 332 332 332 332 332 332 331 331 331 331 331 331 330 330 330 331 330 330 329 330 330 329 329 328 328 328 327 327 326 325 325 326 326 325 324 323 323 323 323 323 322 321 320 320 320 320 320 320
333 334 334 335 333 335 340 341 336 332 329 330 331 332 331 330 330 330 329 329 329 331 333 333 334 333 332 332 331 330 331 332 333 332 327 324 324 325 326 326 326 326 324 325 326 327 328 329 330 331 332 332 332 332 332 332 331 331 331 331 331 330 330 330 330 330 330 329 330 330 329 329 328 328 327 327 327 326 326 325 325 326 325 324 323 323 323 323 323 323 322 321 320 320 320 320 320
333 334 335 334 332 335 340 340 337 334 331 328 328 331 330 329 330 329 327 327 327 327 330 331 331 332 332 331 332 331 331 331 332 333 331 326 322 324 325 325 326 326 326 326 325 326 327 328 328 329 330 331 331 332 332 332 332 331 331 331 331 330 330 329 329 329 330 329 329 330 329 329 328 328 327 327 327 326 326 325 324 325 325 325 324 323 323 323 323 323 322 322 321 320 320 319 320
334 333 333 332 333 335 336 335 335 335 336 332 328 332 335 332 331 329 327 327 326 325 326 326 327 327 328 328 330 330 331 332 332 332 331 325 322 323 324 325 325 325 326 327 326 327 327 327 328 328 329 329 330 331 332 332 332 331 331 331 331 330 329 329 329 329 329 329 329 329 329 329 328 328 327 327 327 326 326 326 325 325 325 325 325 324 323 323 323 323 323 322 321 321 320 319 319
336 333 332 331 332 333 333 333 335 336 336 333 328 331 335 334 330 329 328 326 326 325 326 326 325 324 324 324 325 327 328 331 332 331 328 325 322 322 323 324 325 325 326 327 326 326 326 326 326 327 327 328 329 330 331 332 332 331 331 331 331 330 329 329 329 329 329 329 329 329 329 329 328 328 327 326 326 326 325 325 325 325 325 325 325 324 323 323 323 322 322 322 322 321 320 319 319
335 330 329 331 331 332 334 334 336 336 334 332 328 328 332 333 332 329 328 327 326 324 324 325 324 323 324 323 323 325 327 329 330 330 332 329 323 321 323 324 325 325 326 326 327 326 326 326 325 325 325 326 328 329 330 331 332 331 331 331 331 330 330 329 329 329 329 329 329 329 328 328 328 327 327 326 326 326 325 325 325 326 326 326 326 325 324 323 323 322 322 322 321 321 321 320 319
330 326 326 329 329 331 333 333 334 333 331 332 331 327 331 334 333 328 325 325 326 324 323 323 322 322 324 326 325 325 328 329 329 331 335 330 323 322 324 324 325 326 326 326 326 326 325 325 325 325 324 325 326 328 330 330 331 331 331 331 330 330 330 329 329 329 329 329 328 328 328 328 328 327 326 326 325 325 325 325 325 326 326 326 326 325 324 323 323 322 322 322 321 321 320 320 320
327 325 326 326 325 328 331 332 332 332 332 333 332 329 331 333 332 328 325 325 326 325 323 322 321 322 323 326 327 327 328 329 330 334 332 322 321 324 324 325 326 326 325 325 324 324 323 324 325 325 324 324 325 327 329 330 330 331 331 330 330 330 330 329 329 329 329 328 328 328 328 328 328 327 326 326 325 325 325 325 325 326 326 326 326 326 325 324 323 323 322 322 321 321 320 320 320
326 326 327 325 325 327 330 332 332 333 334 332 331 329 330 332 332 329 328 328 327 325 324 323 322 323 323 326 328 327 327 329 332 339 332 321 321 326 325 325 325 324 323 323 322 321 321 322 323 324 324 324 324 325 327 329 329 330 330 330 330 330 330 329 329 329 329 328 328 328 328 327 327 327 326 326 325 325 325 325 326 326 327 326 326 326 325 324 324 323 323 322 321 321 321 320 320
325 325 324 324 327 328 328 330 331 333 335 332 330 329 329 330 331 330 331 330 327 325 325 326 324 325 325 325 325 326 326 330 335 341 335 327 326 324 323 323 323 322 323 322 322 322 321 322 322 322 323 323 323 324 325 327 329 330 330 330 330 329 329 329 329 329 329 328 328 328 327 327 327 327 326 326 326 326 326 326 326 327 327 327 327 326 326 325 324 323 323 322 322 321 321 321 320
325 325 322 323 327 329 329 330 331 332 333 332 330 330 330 329 327 326 329 327 325 324 324 325 325 325 327 326 327 329 331 334 338 341 338 337 334 326 322 323 323 323 322 320 321 321 320 320 321 321 321 321 321 321 322 324 326 328 329 330 330 330 329 329 329 329 329 329 328 328 327 327 327 327 326 326 326 326 326 326 326 327 327 327 327 326 326 325 324 324 323 323 322 322 321 321 320
325 323 322 324 327 328 329 331 331 330 332 331 330 330 331 331 328 326 325 324 325 325 324 324 324 324 326 328 329 332 334 335 340 343 343 343 336 325 321 323 323 321 318 317 317 317 317 317 317 318 319 319 319 319 319 320 321 324 327 329 330 329 329 329 329 329 329 329 329 328 328 328 327 327 327 327 327 326 326 326 326 326 327 327 327 326 326 326 325 325 324 323 323 322 322 321 320
324 323 323 323 326 328 328 330 331 332 333 332 329 331 334 336 334 328 325 326 325 323 322 324 324 324 324 327 330 333 334 334 337 340 342 339 329 321 322 323 321 318 315 315 315 315 315 315 315 315 315 315 316 317 318 318 319 320 323 326 329 329 329 329 329 329 328 329 329 329 329 328 328 328 328 327 327 327 327 326 326 326 326 326 327 327 326 326 326 325 325 324 324 324 323 322 322
323 324 323 322 326 328 327 327 330 332 333 332 330 333 336 336 331 324 323 325 323 321 323 324 325 324 323 327 331 334 335 333 335 338 338 333 323 320 323 321 318 317 315 314 315 314 315 315 314 314 313 314 314 314 315 316 317 318 319 322 325 328 329 329 329 328 328 328 328 328 329 329 328 328 328 328 327 327 327 327 327 327 326 326 326 326 326 326 326 326 326 325 325 324 324 323 323
323 324 324 323 326 330 327 325 326 328 329 330 331 332 331 328 325 322 321 321 319 321 324 325 328 328 326 330 334 336 336 333 335 339 337 329 322 321 322 319 317 316 315 315 315 314 315 315 315 314 313 314 313 313 313 313 314 315 316 318 320 324 327 329 329 328 328 328 327 328 328 328 329 328 328 328 328 328 328 327 327 327 327 327 326 326 326 326 326 325 326 326 326 325 325 324 324
323 323 324 323 325 328 327 326 326 326 326 327 328 327 325 324 326 327 324 321 320 326 329 326 327 329 329 333 336 337 337 336 337 338 335 327 320 319 320 318 316 316 315 316 315 315 315 315 315 315 314 314 314 313 313 313 313 313 313 314 316 318 322 325 327 328 328 328 328 327 327 327 328 328 328 329 328 328 328 328 328 327 327 327 327 327 326 326 326 326 325 325 326 326 325 325 325
324 323 322 324 326 326 325 326 326 326 325 326 328 327 325 324 323 322 324 325 325 329 330 327 327 328 328 330 333 333 336 339 337 334 334 327 318 317 317 315 315 315 315 316 316 315 315 316 316 315 314 315 314 314 314 313 313 313 313 313 313 314 316 319 323 326 327 328 328 328 327 327 327 327 328 328 328 328 328 328 328 328 327 327 327 327 327 326 326 326 325 325 325 326 325 325 325
324 324 322 324 327 326 325 324 325 326 325 325 327 328 329 326 319 318 321 323 325 325 324 325 325 326 326 326 330 334 337 339 336 332 333 328 318 315 315 314 314 314 313 314 316 316 316 316 316 316 315 315 315 314 314 313 313 313 313 313 313 313 313 315 318 321 325 326 327 327 327 327 327 327 327 327 327 328 328 328 328 328 328 327 327 327 327 327 326 326 325 325 325 325 325 325 325
324 324 323 323 325 326 327 325 326 327 326 325 325 325 331 330 320 318 320 319 321 322 321 323 324 323 325 327 331 336 336 335 334 332 333 328 318 315 316 315 315 314 314 313 314 315 317 316 316 316 315 315 315 315 314 314 313 313 313 313 313 313 313 314 314 317 321 324 326 327 327 327 327 327 326 326 327 327 327 328 328 328 328 328 327 327 327 327 326 326 326 325 325 325 325 325 325
322 323 322 322 323 324 326 325 326 327 326 328 326 322 328 329 321 319 320 319 320 321 323 325 323 322 325 327 331 334 332 332 331 330 332 328 318 315 316 315 315 314 314 314 313 314 316 316 315 316 316 315 315 315 314 314 314 313 313 313 313 313 312 313 314 315 317 320 323 325 326 327 327 327 327 326 326 326 326 327 327 328 328 328 328 327 327 327 326 326 326 325 325 325 325 325 325
Wind_Speed
22 23 23 24 25 18 10 2 2 3 3 1 2 2 2 2 4 4 6 5 3 2 2 3 3 3 4 6 8 7 4 2 1 1 2 4 13 15 13 18 19 16 16 16 14 14 14 13 12 11 10 10 10 9 10 10 11 11 11 12 12 13 13 12 12 12 12 11 12 11 12 13 13 13 13 13 13 13 13 13 13 13 13 13 12 12 13 13 13 13 13 14 13 13 13 12 11
22 23 22 24 20 8 3 2 3 3 4 2 2 2 2 5 6 5 6 5 3 1 2 4 4 5 6 8 8 6 5 4 2 1 3 11 14 14 19 20 17 15 15 15 14 14 14 12 12 10 10 10 10 10 10 10 11 10 11 10 11 13 12 12 12 11 10 10 11 11 12 12 13 13 13 13 13 13 13 13 12 13 12 12 12 11 12 12 13 13 13 13 12 12 12 11 10
22 22 23 22 12 2 1 3 3 1 4 2 2 1 4 6 5 5 6 6 3 1 3 5 5 3 4 5 4 4 1 1 4 3 4 12 12 17 23 18 14 13 11 13 14 13 13 12 11 10 9 9 10 10 9 10 10 9 9 9 11 12 12 11 11 11 9 9 11 11 11 12 12 12 13 13 13 13 12 12 12 12 12 12 12 11 11 11 12 12 12 11 11 11 11 10 9
21 20 21 14 5 3 3 3 1 2 2 2 1 1 5 6 6 5 5 5 3 4 3 3 3 1 4 7 3 4 3 1 5 5 5 10 14 21 22 17 14 11 10 13 13 11 11 11 10 10 9 8 10 11 9 9 9 9 9 9 11 12 12 10 9 10 9 9 11 11 11 12 12 12 13 13 13 12 12 12 12 12 12 11 11 11 11 11 10 10 11 10 9 9 9 9 9
20 22 19 5 2 2 2 2 1 3 1 2 4 3 6 7 7 6 4 5 5 5 4 2 2 2 4 4 2 3 3 3 5 7 8 12 18 22 19 16 13 11 12 13 12 11 10 11 11 10 9 8 9 10 10 9 9 8 8 9 10 12 12 9 8 8 7 10 12 11 11 11 12 11 11 12 11 11 12 12 11 11 11 11 11 11 10 10 9 9 9 10 9 8 8 8 8
21 23 14 1 2 1 3 2 2 2 3 3 5 4 7 7 7 7 4 4 5 5 5 3 2 3 4 2 3 2 2 6 8 8 13 17 19 20 18 16 13 14 16 13 11 10 9 10 10 10 8 7 8 9 11 9 8 8 7 7 8 11 11 8 8 7 6 10 12 12 12 11 11 11 10 11 11 11 11 11 10 11 11 10 10 10 9 9 8 8 8 8 8 7 7 6 6
18 15 6 2 2 1 3 1 2 3 3 2 6 6 7 7 7 8 5 3 5 4 4 1 2 6 2 0 3 5 4 10 11 12 19 23 20 19 18 15 14 16 18 15 11 9 9 8 9 9 8 8 7 8 10 9 9 8 7 6 6 8 9 7 8 8 8 10 12 13 12 11 10 11 10 10 11 10 10 10 10 10 10 10 10 9 9 9 8 8 7 7 7 6 6 6 6
15 5 1 3 3 2 1 2 3 3 1 1 5 7 9 9 7 7 5 3 1 1 2 2 4 5 2 3 3 4 9 11 13 18 24 25 22 20 18 15 14 16 18 15 11 9 8 8 9 9 8 8 8 8 10 10 11 10 7 6 6 7 7 7 8 8 9 9 11 13 12 11 10 11 11 9 10 9 9 9 9 10 10 9 9 9 9 8 7 7 6 6 6 5 5 5 5
13 2 0 3 1 3 3 3 2 3 2 1 3 5 8 9 7 7 5 3 3 2 1 1 4 5 0 6 3 2 9 15 19 23 24 24 23 20 17 15 15 15 17 14 11 9 8 9 9 8 7 7 7 8 11 11 12 11 8 7 8 8 7 8 9 9 10 10 10 12 12 10 9 10 11 10 10 9 9 9 9 9 9 9 8 8 8 8 7 7 6 6 4 4 4 4 4
8 1 1 1 1 3 4 4 3 1 3 3 4 6 7 6 6 6 6 5 5 4 0 2 4 5 4 5 2 0 8 19 23 22 23 24 22 20 17 16 16 15 15 13 11 9 8 9 9 8 7 6 6 6 9 11 12 12 10 9 9 7 7 9 10 9 10 10 9 11 11 9 8 10 12 11 10 9 9 9 9 8 8 8 8 8 8 7 7 6 6 5 4 4 4 4 4
3 3 1 1 2 2 3 3 3 2 4 3 3 4 6 5 6 5 6 5 4 5 1 2 3 3 6 4 0 3 13 20 22 23 22 22 23 20 17 18 17 14 13 11 9 7 7 9 9 8 6 5 5 5 7 10 13 12 10 10 9 8 8 10 10 9 10 9 9 11 11 10 9 10 12 11 10 9 9 9 9 9 8 8 8 8 7 7 6 6 5 5 5 5 5 4 5
2 4 3 1 2 2 3 2 3 2 2 3 3 2 4 6 6 5 7 5 4 5 2 2 2 2 6 2 1 6 13 16 20 24 21 21 21 17 16 19 17 14 13 10 8 7 7 8 8 8 7 5 5 5 7 11 14 13 11 11 9 9 9 10 10 9 9 9 9 11 11 11 10 11 11 10 9 9 8 9 9 8 7 7 7 8 7 6 6 6 5 5 6 5 5 5 5
1 2 4 2 2 1 3 3 2 2 2 1 2 3 5 5 5 6 7 5 5 6 2 5 2 4 5 1 1 5 8 13 22 23 21 21 17 14 17 20 17 14 13 11 9 8 7 7 8 8 8 6 6 6 7 12 14 14 13 12 10 10 10 11 10 9 8 8 8 10 10 11 11 12 12 10 10 8 8 9 9 7 7 7 7 8 7 6 6 5 5 5 5 5 5 4 5
0 0 3 2 2 3 3 3 2 4 2 4 1 1 4 3 3 5 8 6 2 4 3 4 4 6 3 2 1 3 7 17 24 21 20 20 14 14 18 18 16 15 12 11 10 9 8 8 8 8 8 8 7 7 8 10 12 13 14 13 11 11 11 11 10 9 8 7 7 7 8 8 9 12 12 11 10 8 8 9 7 6 7 9 9 8 7 7 7 5 5 6 5 5 5 3 4
1 0 3 1 3 4 2 3 1 5 1 3 2 2 4 2 3 6 7 6 1 2 2 2 4 4 3 4 3 5 11 21 22 20 21 19 14 15 18 16 15 15 13 11 11 10 9 8 9 8 9 9 9 9 9 10 11 11 13 14 13 11 12 11 11 10 9 8 8 8 7 7 8 9 10 10 9 8 8 7 6 6 7 9 9 9 8 8 7 5 5 6 6 5 4 3 4
1 2 4 2 2 3 3 4 1 3 3 5 4 4 6 3 4 5 1 5 3 1 2 1 1 3 3 4 7 12 19 22 21 20 21 19 14 14 17 16 15 14 13 13 12 10 10 10 10 9 9 9 10 11 10 11 11 11 12 14 15 13 13 12 12 11 10 9 9 9 8 7 8 8 9 9 9 9 8 7 6 7 8 8 9 9 9 9 8 6 6 6 6 5 4 4 6
3 4 3 1 2 3 3 3 3 1 2 2 1 4 6 1 3 2 1 5 5 1 2 2 2 4 3 5 15 22 23 23 23 22 20 18 14 13 15 15 15 15 14 15 15 13 12 12 11 11 10 9 10 11 11 11 12 12 12 13 15 15 15 14 13 12 11 10 10 10 9 9 9 9 10 10 10 10 9 8 7 8 8 7 9 10 10 9 8 7 7 7 5 5 4 5 6
3 3 2 2 2 4 3 1 2 2 1 2 2 2 6 4 1 1 2 5 3 2 2 3 6 6 8 15 23 25 23 23 24 23 20 17 14 13 15 16 16 17 17 18 18 18 17 16 14 13 13 11 11 11 12 12 12 13 13 14 15 16 16 15 15 14 13 12 11 10 9 9 9 10 11 11 11 11 11 10 8 9 9 8 8 9 10 11 9 8 8 7 6 6 6 6 6
3 2 2 3 5 5 2 0 2 2 1 1 2 3 4 5 2 2 2 1 3 3 1 4 7 5 9 16 23 23 22 23 23 23 20 18 17 15 15 16 17 19 20 21 22 22 21 19 18 17 16 14 13 13 13 13 13 13 13 14 15 16 17 18 17 16 15 14 13 12 10 9 9 11 11 11 11 12 12 12 10 10 10 9 9 9 10 12 11 10 10 8 6 7 8 7 7
2 3 2 4 6 4 4 2 2 1 3 4 4 4 4 2 2 1 2 3 3 5 3 4 5 4 7 10 18 22 21 21 22 22 20 20 20 19 18 18 18 20 22 23 23 23 23 22 21 20 18 16 16 16 16 15 15 15 14 15 15 16 18 19 19 18 17 16 15 14 12 11 11 12 12 12 12 13 13 13 12 12 12 11 10 9 10 12 12 10 11 10 9 10 10 9 8
2 4 4 5 5 3 3 2 3 2 4 5 2 5 5 1 2 2 3 2 1 4 4 6 8 10 10 9 14 19 19 19 19 20 19 20 20 20 22 22 22 22 22 21 22 22 23 22 22 21 20 18 17 18 19 18 17 17 16 15 15 15 17 19 20 19 19 18 17 15 14 13 14 15 15 16 14 14 14 13 13 13 13 12 12 11 10 13 13 11 11 11 11 11 11 11 10
2 4 6 6 4 3 4 2 2 2 4 5 4 4 2 2 1 1 4 2 4 4 4 6 7 11 14 13 15 16 16 16 17 18 19 20 21 21 22 23 23 23 22 22 22 23 23 23 23 22 21 20 19 20 20 19 19 19 17 17 16 15 16 18 19 20 20 19 18 17 16 17 18 17 17 18 16 15 15 14 14 15 15 15 15 14 13 13 14 14 13 12 12 12 12 11 11
3 5 4 5 5 5 4 2 1 4 6 4 3 1 1 3 3 2 4 4 6 5 5 5 3 12 19 16 15 13 12 14 17 20 21 22 23 23 23 24 24 23 24 24 23 22 23 24 24 24 23 22 22 21 21 21 21 20 18 18 18 17 17 17 19 20 20 20 20 19 19 20 20 18 19 19 18 18 17 16 16 17 18 18 17 16 15 14 14 16 16 14 13 13 13 11 11
4 5 4 6 7 5 2 2 2 5 5 3 3 1 1 1 2 1 2 6 7 6 5 7 8 13 18 14 13 13 13 16 19 23 25 25 26 25 24 24 24 24 25 26 25 24 23 23 25 26 25 24 24 23 23 23 23 21 20 19 19 19 19 19 19 19 19 20 21 20 20 22 22 20 21 21 20 20 20 19 18 18 20 19 17 16 16 15 15 17 18 16 15 15 14 11 11
5 6 5 5 6 4 3 5 4 4 3 3 4 0 3 5 2 1 5 7 6 5 4 7 10 14 14 12 12 11 12 16 19 22 24 25 26 25 24 24 23 24 27 27 26 26 25 24 25 27 27 27 26 26 26 26 25 24 22 22 22 22 22 21 20 19 19 20 22 22 21 23 24 23 23 22 21 22 22 21 19 18 19 19 18 17 17 16 16 18 19 18 17 17 15 12 13
6 8 6 5 6 5 4 5 5 5 3 4 3 3 6 5 2 3 7 7 7 5 4 5 9 11 10 11 12 11 11 14 18 20 23 26 25 24 25 25 24 25 27 27 27 27 26 25 26 28 29 28 28 27 28 28 27 27 26 25 24 24 25 23 21 21 21 21 22 24 24 25 26 26 26 24 24 23 23 23 21 19 20 19 19 19 19 18 17 18 19 18 18 18 16 14 15
5 8 8 6 6 6 4 5 6 5 3 5 5 6 6 5 3 3 6 8 8 6 6 6 7 9 10 9 10 12 12 15 20 21 20 21 23 25 26 27 27 27 26 27 28 29 27 27 28 29 30 30 29 29 29 29 29 29 28 27 27 26 26 25 24 24 24 23 23 24 25 26 27 27 28 27 26 24 23 24 22 21 22 22 21 21 22 21 19 19 19 19 20 19 18 17 18
6 6 7 8 6 6 5 5 6 4 2 5 7 5 5 2 3 6 7 8 7 7 8 7 7 8 9 9 9 10 11 18 22 20 17 20 24 27 27 29 31 30 29 30 31 30 29 29 30 31 31 31 31 31 31 30 30 30 30 29 29 28 27 27 27 26 26 26 25 25 26 26 26 27 28 29 28 25 24 25 23 24 25 25 25 23 22 23 21 20 20 20 20 21 21 20 19
6 4 5 8 5 6 6 5 5 5 3 5 5 3 5 5 6 8 9 9 7 6 7 7 8 7 7 8 7 7 11 16 19 19 22 25 27 29 30 31 33 33 33 33 31 30 31 31 31 32 32 32 32 33 33 32 32 31 32 31 30 29 29 29 29 28 28 27 27 27 27 27 27 27 27 28 28 26 25 26 25 25 25 25 26 24 22 23 24 23 22 22 22 23 23 21 19
6 4 2 4 5 5 5 5 5 5 4 6 6 3 6 7 10 10 10 10 7 5 7 6 7 7 6 7 6 7 10 12 15 21 26 28 29 30 31 32 33 34 34 33 32 32 32 32 32 32 33 33 34 34 34 34 33 32 33 33 31 31 31 31 31 32 31 30 30 29 28 28 28 27 26 27 28 26 25 27 27 26 25 24 25 25 23 23 25 25 24 24 24 24 24 22 22
3 3 3 2 3 3 4 6 7 5 4 7 7 6 7 6 9 11 10 9 8 8 8 7 7 6 6 7 7 7 9 13 19 25 28 29 30 30 31 32 32 33 33 33 34 34 33 33 33 33 33 34 34 34 35 35 35 34 33 34 34 32 32 33 33 34 34 33 32 32 31 30 29 28 27 26 28 29 27 28 29 27 24 24 24 24 24 24 25 27 26 26 26 26 26 25 24
2 3 3 3 4 2 1 5 8 7 5 6 9 6 6 7 10 11 9 8 9 10 9 9 8 8 7 7 8 7 8 13 20 26 29 30 30 30 31 31 31 32 33 33 34 34 34 33 33 34 34 34 35 35 36 36 36 36 34 34 35 35 33 34 35 35 35 35 35 35 34 33 32 31 29 27 28 30 30 29 29 28 25 23 24 23 24 25 26 27 27 28 28 28 28 27 27
2 4 3 3 4 3 3 5 7 9 4 4 9 6 3 6 9 8 7 6 9 9 9 10 9 8 8 7 7 7 8 9 12 19 26 28 30 31 31 31 31 32 33 33 33 33 34 34 35 35 35 35 36 36 36 37 37 37 37 35 35 36 36 36 36 35 35 36 36 37 36 35 34 33 32 30 29 30 32 31 29 28 26 25 24 24 24 25 26 28 28 29 30 30 29 29 29
3 2 3 3 3 2 3 5 6 9 7 6 10 10 6 6 7 8 5 2 7 9 9 9 8 8 8 7 6 7 7 7 8 15 25 28 30 31 30 31 31 31 32 32 33 33 34 35 36 37 37 36 36 36 36 37 38 37 37 36 35 36 37 38 37 36 36 37 37 38 36 36 35 34 33 32 31 31 32 33 31 29 28 27 26 25 25 26 26 28 29 30 31 32 31 30 31
4 4 3 2 3 4 5 5 4 9 10 9 11 10 10 9 9 9 8 2 3 7 8 7 8 7 7 6 6 6 6 6 8 17 27 30 30 30 30 30 30 31 32 32 33 33 33 34 36 37 37 37 36 35 36 36 36 36 36 36 36 36 37 38 38 38 37 37 38 38 36 36 36 36 35 33 33 32 32 33 33 32 31 30 28 28 28 28 29 30 30 31 32 33 33 32 32
7 6 4 4 5 7 6 5 5 9 10 9 11 11 10 11 12 10 8 7 5 6 6 6 7 7 7 6 6 6 7 7 10 18 25 28 29 29 29 29 30 31 32 32 33 33 34 34 34 36 37 36 35 34 35 35 35 35 35 34 36 38 38 38 38 39 37 37 38 37 36 37 37 37 37 36 34 33 33 34 34 33 33 32 31 31 32 32 32 32 32 32 33 33 34 33 31
6 5 6 7 7 6 4 4 5 5 8 8 10 11 10 10 12 10 8 8 7 8 8 7 7 7 7 7 7 8 7 8 13 18 21 25 27 27 26 28 29 30 31 32 33 34 35 35 35 36 36 36 35 35 35 36 36 35 34 35 38 39 39 38 38 39 39 39 38 37 36 36 37 37 38 38 36 35 34 34 35 35 33 33 34 34 34 34 34 33 33 32 33 33 33 34 31
6 4 5 5 5 5 4 4 4 2 5 6 7 10 11 9 10 10 7 7 7 8 9 8 9 8 7 7 8 9 7 7 10 15 19 23 25 26 25 26 28 30 31 32 33 34 34 35 35 36 35 36 37 37 37 38 39 39 37 38 39 39 38 39 40 41 41 40 39 37 36 36 36 37 38 38 38 37 36 34 35 36 35 35 35 34 34 34 35 34 33 33 33 34 34 33 32
7 4 3 2 2 2 4 4 3 2 4 4 4 6 9 9 9 9 7 6 6 7 8 8 9 9 7 7 8 9 8 8 9 11 16 22 25 27 25 25 28 30 32 33 33 34 33 34 35 36 35 36 38 39 39 40 40 41 39 38 38 36 35 38 40 39 39 40 39 37 37 37 37 37 37 37 38 38 38 37 36 36 37 37 36 35 35 35 36 36 36 35 32 32 32 32 33
8 6 5 4 3 1 3 4 4 3 3 3 4 5 6 5 6 8 7 7 5 6 8 8 8 8 9 9 8 9 10 10 10 10 12 18 23 24 25 26 28 29 31 31 32 32 33 34 35 35 36 37 38 39 41 41 40 38 38 36 34 32 32 33 34 36 37 37 37 38 39 39 38 37 37 37 38 39 39 39 37 36 37 38 37 37 37 37 37 37 37 37 33 30 30 32 34
9 9 9 8 5 4 3 1 3 4 5 5 5 6 6 5 6 8 7 6 5 6 7 8 8 8 8 7 7 9 9 10 10 10 10 13 17 21 25 27 27 27 29 31 31 32 33 34 35 35 36 37 39 39 40 39 36 34 33 31 29 28 28 28 30 34 36 36 38 40 41 40 38 38 38 38 39 40 39 39 39 38 37 38 39 39 39 38 38 38 38 38 37 33 31 30 31
8 10 12 10 7 6 3 3 3 3 3 3 2 4 5 4 6 9 7 6 6 5 7 9 10 10 9 8 9 9 9 9 9 11 11 10 14 19 22 23 22 23 28 30 31 32 33 34 34 34 35 36 38 38 38 36 35 33 31 30 28 27 27 29 33 37 37 39 40 41 40 39 38 38 38 39 40 40 40 39 39 39 39 39 40 40 40 39 39 40 40 39 40 39 33 27 27
6 5 8 11 8 6 5 4 4 1 3 3 3 5 5 3 4 7 5 5 7 5 6 9 9 10 10 9 10 10 9 9 10 10 9 9 13 16 19 22 22 22 25 27 29 31 32 32 32 33 33 34 36 35 35 35 35 34 32 33 33 31 31 34 37 37 36 37 38 37 37 37 38 38 39 39 40 41 41 40 40 40 40 40 40 40 41 41 41 41 41 41 40 40 36 29 28
3 3 1 9 9 8 8 6 4 3 2 3 3 4 4 4 4 7 6 6 9 8 7 9 9 10 10 10 11 11 11 11 10 10 9 9 14 17 20 24 23 20 20 20 23 25 27 29 30 31 32 32 33 33 33 34 35 35 35 35 35 36 36 35 34 32 33 34 34 35 36 36 37 39 40 40 41 41 41 41 41 40 41 42 41 41 42 42 42 41 40 41 41 39 38 36 33
1 3 5 3 3 4 6 7 4 2 1 4 5 3 4 5 4 6 7 7 10 11 9 10 11 10 9 10 11 11 11 11 9 8 8 9 15 20 22 22 20 17 15 15 16 18 20 24 26 28 29 30 30 31 32 33 35 36 36 36 36 37 37 34 30 28 31 32 33 35 36 36 37 38 40 41 41 41 41 41 41 42 43 43 42 43 42 41 41 41 41 41 42 41 40 40 37
4 4 6 6 4 4 3 4 5 3 1 7 6 4 4 4 3 4 4 5 8 9 9 9 9 10 9 10 11 11 10 9 7 7 8 11 16 17 16 16 15 13 11 12 13 15 17 20 22 25 27 27 27 28 30 32 34 36 36 36 36 35 33 31 28 27 29 29 32 34 35 37 37 38 40 41 41 41 41 41 42 43 44 44 43 43 42 42 42 42 42 42 42 42 41 41 40
6 4 5 4 3 4 3 1 3 4 5 8 8 8 5 3 3 5 4 5 8 8 7 7 7 9 10 9 9 9 7 5 5 5 6 8 9 8 7 8 10 10 11 12 13 15 17 18 19 20 22 23 24 25 26 29 32 35 36 36 35 34 31 29 28 29 29 29 31 34 35 36 37 38 39 39 41 42 41 41 42 43 44 44 44 44 44 44 43 42 42 41 42 42 42 41 41
6 5 4 3 3 2 3 2 1 3 6 5 8 9 7 5 5 4 4 5 5 6 6 7 8 8 9 10 7 4 2 3 4 4 3 3 3 2 2 5 8 10 11 12 12 13 14 15 16 18 19 20 21 22 24 26 29 32 35 36 36 35 33 31 30 32 32 31 33 33 33 34 34 36 37 38 41 42 41 42 42 43 43 44 45 45 45 44 42 41 40 41 42 43 43 41 40
5 4 4 2 1 1 1 1 1 3 5 3 6 8 6 6 9 8 9 8 6 6 6 7 9 9 9 8 5 2 1 2 3 3 3 3 2 1 3 7 8 8 9 10 10 10 11 12 13 16 18 18 19 20 21 24 26 29 32 34 35 36 35 33 33 33 33 33 33 33 32 32 33 34 36 38 40 41 41 42 43 44 45 46 46 45 44 44 41 40 40 41 42 42 43 42 42
9 8 7 6 4 2 2 2 0 0 3 4 3 5 3 5 7 10 11 9 8 8 8 9 10 12 11 7 5 4 2 5 4 5 5 4 2 1 4 6 6 7 9 9 8 8 9 10 10 13 16 16 16 18 19 21 24 27 30 32 34 35 35 35 35 34 35 34 33 33 33 33 34 36 38 39 40 40 41 43 44 45 45 45 45 44 44 43 42 41 40 40 42 43 42 42 43
9 6 6 6 5 4 3 3 2 2 1 4 2 3 4 4 4 6 8 8 8 8 8 9 10 12 9 4 2 3 1 3 3 4 4 3 2 1 2 4 5 7 8 9 8 7 8 8 8 10 12 12 13 15 16 18 21 23 26 29 32 34 35 35 36 37 36 35 34 34 34 35 36 37 39 39 39 38 39 41 43 44 45 45 44 44 44 43 42 41 41 40 41 42 41 41 42
5 4 5 5 4 4 2 1 3 3 1 2 2 2 4 4 5 6 5 6 8 9 8 7 8 8 5 3 4 4 3 2 2 3 3 1 2 2 2 3 5 7 7 7 7 8 8 8 8 8 9 10 10 11 13 15 17 20 23 26 29 31 34 35 36 37 37 37 35 34 35 36 37 37 38 38 38 37 38 40 41 43 45 45 45 44 44 44 43 42 41 41 41 41 41 41 42
5 4 6 4 1 5 3 0 2 3 1 3 4 4 4 2 7 9 7 9 11 11 8 5 6 6 3 4 6 5 3 3 4 4 3 2 3 4 5 3 3 6 7 7 7 8 8 8 8 8 8 9 9 9 10 11 13 16 19 23 26 28 31 34 36 37 37 36 36 36 37 37 37 37 37 38 37 38 38 39 40 42 43 44 45 44 44 44 43 42 42 42 42 43 42 42 42
7 5 6 4 4 3 3 2 2 3 4 4 5 9 5 2 5 5 3 9 11 9 8 6 6 5 4 6 6 4 4 5 4 3 4 3 3 5 5 3 1 4 7 7 7 8 8 8 8 8 8 8 9 9 10 10 11 13 16 18 22 25 28 32 35 36 36 35 35 37 38 38 38 38 37 38 38 38 38 39 40 42 42 43 44 44 44 44 43 43 42 43 44 43 43 42 42
4 6 9 6 1 3 4 4 3 4 5 3 4 7 5 5 8 7 4 8 10 8 7 7 7 6 6 8 5 3 4 5 4 5 5 4 4 5 4 3 3 7 10 9 8 9 8 8 9 8 8 9 10 11 11 12 12 13 14 16 18 21 25 29 32 33 34 35 36 37 37 38 39 38 38 38 38 37 37 38 40 41 42 42 42 43 43 43 43 43 42 42 43 43 42 42 42
3 5 7 4 2 4 5 5 3 3 5 3 3 4 4 6 10 11 11 10 9 7 6 6 8 8 9 8 5 6 7 7 6 6 6 5 5 4 4 5 9 14 16 14 12 11 9 9 9 9 9 10 11 12 12 13 13 14 15 16 16 18 21 25 28 30 32 34 36 37 37 38 38 38 38 38 37 37 38 38 38 40 40 40 40 41 42 42 42 42 42 42 42 41 42 42 42
5 7 8 6 3 1 1 3 2 2 3 3 2 3 5 6 7 10 12 12 11 9 8 8 6 6 6 6 6 8 8 8 7 6 6 6 4 4 5 7 13 17 19 18 16 14 11 10 10 10 11 11 14 15 14 15 15 16 17 19 19 18 18 21 24 27 29 32 34 35 36 37 37 37 37 37 37 37 38 37 37 38 39 39 40 40 41 40 40 40 41 41 40 40 41 42 41
10 9 10 10 7 4 3 3 2 2 2 3 3 5 7 5 5 8 11 10 8 7 7 6 4 4 4 5 7 8 8 8 8 7 7 6 4 3 4 10 18 20 19 18 20 18 14 11 11 11 11 12 15 17 16 17 17 18 19 21 22 21 19 19 21 24 27 30 32 34 34 35 35 36 36 36 37 37 37 37 37 37 38 38 39 40 40 39 39 40 40 40 39 39 40 41 40
Wind_Direction
332 335 339 339 335 335 329 40 60 319 91 15 298 105 346 55 87 66 55 45 52 359 16 75 52 56 74 105 119 102 50 16 157 153 161 172 151 158 168 161 155 147 148 155 157 151 148 145 140 134 132 133 129 128 131 135 135 134 133 130 128 122 112 98 95 84 72 92 103 98 100 102 106 108 106 107 104 101 101 103 105 103 101 101 98 95 93 96 96 93 93 92 91 91 89 90 90
331 333 339 338 335 345 308 56 73 330 49 33 318 100 51 48 62 69 76 74 91 244 30 57 44 56 84 121 124 85 44 19 64 107 124 144 142 144 152 156 150 141 143 154 161 157 153 147 144 137 128 135 134 130 131 136 137 136 136 132 133 126 111 100 96 87 74 94 109 101 103 106 109 111 108 108 106 105 107 107 105 103 103 105 103 99 95 97 98 94 95 94 92 93 92 93 91
330 331 337 339 338 27 356 31 92 7 59 102 308 3 82 72 86 92 97 96 103 109 54 42 35 46 55 74 75 65 97 28 85 79 120 144 138 141 149 153 146 137 141 155 164 161 156 147 144 139 129 134 133 132 131 135 136 135 134 130 134 126 112 103 95 94 89 101 112 108 109 111 112 114 112 110 109 110 112 111 107 107 107 107 105 102 98 97 98 97 98 97 96 95 95 96 92
329 332 329 335 355 9 39 42 136 119 73 157 68 57 109 110 125 110 108 103 70 59 51 41 37 339 59 71 82 81 115 120 126 121 135 154 140 143 148 145 142 137 141 156 165 163 159 153 145 139 134 134 133 136 133 134 137 133 131 127 131 125 116 108 97 97 98 109 114 114 117 118 117 115 113 111 113 115 115 114 111 109 107 105 104 101 100 100 99 98 98 98 98 96 96 96 93
330 333 323 317 62 340 79 45 32 89 337 201 118 136 138 128 131 120 114 92 72 75 58 61 42 322 55 66 97 105 124 111 140 138 139 152 140 143 145 141 142 139 145 156 162 159 159 158 151 143 137 137 136 139 136 132 131 129 127 124 128 128 125 115 100 93 97 119 121 119 120 120 119 116 116 118 122 120 114 112 111 111 109 108 106 104 106 106 105 99 97 99 98 96 95 93 89
331 333 327 196 161 257 96 15 338 349 262 172 126 159 144 130 130 117 102 71 57 76 69 69 73 61 63 14 62 78 175 136 146 150 149 149 141 145 145 142 144 144 154 162 164 158 155 161 158 148 140 138 138 141 142 137 133 132 130 125 127 131 130 120 107 97 103 128 132 126 123 123 121 122 125 127 125 117 114 116 115 114 113 112 108 108 110 109 108 102 99 101 100 98 95 89 84
331 333 343 75 332 15 97 212 253 269 260 149 135 154 138 132 131 115 109 72 25 40 63 55 93 90 82 126 81 16 58 138 150 154 155 151 147 147 147 147 144 150 162 165 165 160 156 166 164 151 142 137 137 148 149 146 146 145 152 152 143 138 136 130 120 115 121 137 139 133 130 129 127 130 132 131 125 119 127 128 118 116 115 113 110 111 114 113 111 106 103 101 99 98 97 94 86
332 325 37 51 351 357 58 256 241 205 234 39 134 143 139 140 133 122 137 133 85 48 46 7 69 86 7 57 108 0 67 126 146 147 150 149 150 148 150 153 145 154 164 164 160 156 158 169 168 151 140 137 137 150 154 155 157 154 165 173 167 167 165 157 142 137 146 155 149 140 137 131 127 133 134 132 132 128 134 133 121 118 119 116 116 117 116 116 114 112 108 106 106 105 103 98 88
336 319 1 46 12 336 323 301 275 192 159 66 103 117 135 141 130 126 128 118 133 115 72 154 82 98 73 58 93 346 82 123 138 140 146 149 152 148 150 154 152 154 158 161 156 151 155 167 170 150 140 139 139 149 156 163 167 160 156 157 161 168 173 167 156 158 166 169 160 148 144 135 128 137 141 140 140 135 132 134 126 124 124 119 122 121 120 121 119 119 114 116 121 116 106 97 91
344 332 354 45 53 346 320 310 312 148 168 176 121 116 128 131 119 120 119 117 120 101 124 139 86 109 123 87 96 303 116 133 137 138 147 151 150 147 150 157 162 156 148 152 151 153 155 166 171 157 150 144 145 151 159 165 165 162 158 156 159 158 156 159 160 170 172 171 169 156 152 144 134 143 148 144 139 139 138 137 134 133 129 127 130 128 128 129 129 130 133 145 140 127 117 100 92
3 330 36 36 6 341 272 297 311 132 164 164 118 129 132 120 100 102 112 114 114 116 187 50 66 128 104 91 226 161 139 138 140 142 149 152 150 149 155 160 165 162 153 148 146 153 155 167 171 165 167 161 159 149 156 162 158 159 163 165 167 161 154 159 162 169 171 172 177 165 158 153 148 149 149 144 141 149 154 146 141 139 136 141 142 138 138 140 145 143 154 171 145 129 121 103 88
28 327 40 3 289 234 233 292 283 160 149 124 126 178 130 109 101 116 119 124 128 112 161 135 138 141 100 86 244 163 152 146 145 147 150 151 153 156 162 163 164 170 169 166 159 155 153 167 173 174 180 177 168 153 152 158 160 163 166 172 174 166 165 171 170 167 169 171 173 168 165 163 161 155 151 153 153 157 166 161 156 153 153 156 153 154 155 153 156 158 175 170 141 132 119 102 82
68 329 48 312 239 281 296 296 266 84 356 293 173 190 121 105 136 152 132 129 131 106 178 207 152 81 97 103 149 163 167 158 150 151 151 149 153 156 161 164 166 172 175 178 176 168 162 167 174 179 186 185 173 161 158 162 170 173 172 176 176 175 180 185 184 178 175 173 171 167 168 171 168 162 161 169 170 165 168 168 167 177 185 174 167 170 168 163 166 181 188 162 143 140 124 106 77
250 292 74 293 304 333 301 303 306 79 340 289 313 169 106 93 155 132 117 102 80 131 190 210 120 86 104 113 123 192 166 157 155 155 153 152 156 151 156 163 165 169 172 178 179 179 175 169 172 176 182 184 179 171 167 170 176 179 180 181 181 185 190 192 194 193 192 194 192 180 176 181 181 174 173 179 181 174 169 170 170 177 184 180 180 177 175 175 183 198 181 160 156 149 135 112 71
251 152 94 347 330 337 295 291 250 116 164 229 178 143 82 47 96 81 110 114 37 205 159 78 96 97 157 159 184 203 161 155 157 157 156 160 162 151 153 157 161 167 172 177 179 186 186 181 177 173 175 178 179 178 178 179 181 185 188 190 190 193 196 199 201 204 208 209 209 205 201 198 194 186 185 190 190 182 177 180 177 174 180 188 191 185 181 187 197 203 181 169 163 159 153 108 71
145 102 64 20 315 332 297 290 316 121 210 203 172 121 79 5 65 74 149 130 128 259 73 79 73 107 158 172 168 165 157 155 157 157 159 165 164 155 157 156 160 168 174 179 182 192 196 196 191 182 180 178 177 176 180 185 186 188 193 198 199 200 202 205 207 212 217 214 210 209 216 215 204 194 193 200 199 193 191 195 189 183 192 201 203 196 193 199 207 203 183 177 170 174 168 107 86
63 80 66 344 294 301 278 307 337 137 232 238 183 107 106 24 34 73 318 87 119 128 81 119 55 95 125 138 146 149 152 154 156 157 160 168 165 161 168 169 169 174 182 185 186 192 200 206 203 197 194 187 179 176 182 186 187 189 193 201 205 206 207 209 212 216 220 220 214 210 219 224 215 206 203 206 208 206 205 209 204 196 203 213 213 208 206 209 212 204 189 182 183 188 169 127 104
65 85 137 214 239 244 235 277 305 106 89 295 266 106 121 140 89 115 41 55 91 93 86 90 56 68 110 128 140 146 152 153 156 158 159 170 173 169 177 182 183 185 190 191 191 192 197 207 209 206 203 198 189 186 191 189 189 192 194 202 208 212 212 212 215 217 220 222 220 218 222 224 219 216 216 218 221 219 215 217 217 211 214 224 226 221 219 220 213 202 196 188 193 197 176 159 134
126 144 165 217 220 235 257 276 332 65 138 283 355 35 105 158 164 97 118 134 117 114 152 96 74 70 109 128 141 149 155 155 159 162 163 173 180 183 188 192 194 194 196 197 197 196 196 202 209 210 207 205 200 197 202 199 197 200 200 204 210 216 217 215 215 217 220 222 222 222 222 219 216 219 222 227 228 223 218 217 220 221 219 224 233 230 227 226 217 201 198 192 197 203 187 183 173
175 171 203 240 232 268 330 76 100 100 125 82 17 19 61 150 152 95 155 161 153 170 196 135 132 159 148 142 147 153 159 162 165 166 170 178 184 190 195 199 202 204 204 203 202 201 198 201 207 211 210 208 204 202 208 208 205 209 209 210 213 217 220 219 218 219 221 221 220 219 216 213 212 218 225 231 230 222 220 218 218 222 221 224 234 237 230 227 223 207 199 195 200 206 199 201 200
193 177 192 231 238 276 322 90 96 58 81 93 45 36 34 326 139 123 126 112 244 217 201 191 193 175 162 161 157 160 164 169 174 174 179 185 190 196 199 204 207 210 211 210 209 207 204 204 209 212 213 211 207 206 210 211 210 214 216 216 217 217 220 220 221 222 223 222 218 215 210 207 211 219 226 229 228 224 223 224 223 224 223 224 230 236 235 231 228 217 210 204 202 208 211 212 216
209 218 201 224 247 262 254 186 101 73 73 79 67 60 14 301 29 103 116 141 242 219 178 182 195 175 166 167 164 166 169 176 183 185 188 191 198 202 204 207 211 213 213 213 213 212 210 209 211 215 215 213 210 209 213 214 212 216 219 219 217 214 217 220 222 224 224 223 220 216 206 203 209 218 224 222 224 225 226 229 231 229 227 231 235 235 234 237 232 221 219 212 204 211 219 223 231
222 258 229 231 240 249 242 203 142 100 81 72 95 143 286 15 331 251 149 197 226 214 181 136 149 170 165 161 161 169 175 182 190 193 194 195 201 205 207 209 212 215 214 216 216 214 213 211 213 217 216 215 214 212 215 217 216 220 223 222 220 215 215 219 223 224 224 224 221 215 204 201 208 216 219 218 221 227 231 236 239 237 234 239 245 236 229 235 235 225 222 218 211 213 217 225 233
222 258 267 255 252 256 216 183 197 111 111 146 138 121 11 65 291 273 197 237 233 221 190 119 113 145 153 156 165 179 181 186 195 199 199 199 204 206 207 209 214 218 216 219 219 216 216 212 212 215 217 216 216 214 215 218 219 221 223 224 223 220 218 220 224 225 224 224 221 215 205 202 210 216 216 219 225 230 235 240 244 240 234 238 241 230 224 229 235 229 224 222 218 214 216 222 223
230 240 254 253 254 255 154 160 169 123 138 144 110 27 240 213 213 265 246 256 251 218 170 123 125 137 150 165 176 185 185 191 197 201 204 206 208 209 209 212 215 217 216 217 218 218 219 216 213 214 217 217 217 216 215 218 220 221 223 223 223 224 224 223 225 226 225 224 221 218 210 206 212 218 220 223 227 232 237 240 242 234 227 232 231 224 223 227 232 228 223 223 221 215 218 225 227
227 231 244 241 244 240 180 179 178 161 177 129 120 247 254 245 222 267 244 239 249 219 165 152 146 148 164 175 182 188 188 195 199 200 206 209 210 212 213 214 215 216 216 216 215 218 220 217 215 216 218 219 219 218 218 219 219 220 222 223 223 224 227 227 226 227 227 225 222 221 218 214 216 221 225 228 230 236 238 237 237 229 224 228 226 223 224 226 227 224 220 221 222 219 222 228 230
236 235 246 244 247 251 215 213 205 177 187 159 169 228 252 253 208 261 257 235 241 232 213 192 159 166 180 182 188 190 191 198 200 200 203 207 209 212 214 214 216 218 216 216 216 218 218 216 218 219 219 221 221 221 221 221 221 220 221 223 225 225 227 228 229 229 228 228 225 224 225 223 223 226 230 232 233 236 236 234 234 229 226 226 226 227 226 223 221 221 221 221 222 225 228 228 226
271 260 270 265 260 270 247 231 213 162 212 184 170 228 258 260 206 225 243 242 236 227 229 209 179 188 189 189 194 192 198 202 200 197 196 203 208 211 213 214 216 218 217 218 219 218 217 217 218 219 219 221 221 221 222 222 223 221 221 224 226 227 227 228 229 229 228 228 228 228 229 229 230 231 233 235 235 234 233 231 233 231 228 227 227 229 227 221 218 219 224 226 225 227 232 230 227
272 258 274 275 278 271 243 228 195 149 224 193 152 277 263 235 232 221 225 237 234 225 234 216 199 205 198 199 203 204 212 206 197 195 201 206 211 212 213 217 217 216 218 221 221 219 218 219 219 219 219 219 220 222 223 223 223 222 222 224 226 227 226 226 227 227 226 227 228 230 232 234 235 235 235 235 233 233 234 231 234 236 232 228 226 229 227 220 216 219 223 226 226 228 232 230 228
245 234 240 274 298 270 216 195 176 162 205 167 133 282 244 226 238 230 228 234 231 233 241 228 212 214 214 210 209 219 222 210 198 202 208 211 215 217 218 221 220 219 221 221 220 221 221 220 220 220 219 219 221 223 223 223 222 222 222 223 225 227 226 226 227 227 228 228 229 230 232 235 237 237 237 233 229 231 234 233 236 240 236 230 225 225 226 220 215 217 219 222 225 227 229 227 228
215 235 241 217 253 247 188 186 172 174 218 149 141 248 247 245 251 240 237 228 215 223 230 226 221 219 219 218 215 223 224 211 205 207 212 215 218 220 223 225 223 223 224 222 221 223 223 222 221 220 220 221 223 223 223 223 223 223 222 222 223 225 225 226 227 228 229 230 230 231 233 237 238 238 238 235 230 228 231 234 236 239 237 233 227 224 225 223 218 217 217 220 224 226 227 228 229
184 205 235 204 220 248 248 225 184 189 235 155 156 240 265 258 254 245 240 223 207 212 218 218 222 222 216 219 220 223 228 217 210 211 214 218 220 221 226 228 226 225 227 226 225 224 223 223 222 222 222 223 223 224 224 224 224 224 224 223 222 223 225 226 228 230 230 231 232 231 233 236 238 238 237 236 233 229 230 234 236 237 235 233 230 227 226 224 220 218 218 220 222 224 227 228 228
235 206 212 195 219 253 298 270 210 194 214 171 187 223 257 253 256 256 253 226 208 211 214 213 216 224 223 222 221 222 231 229 221 221 220 220 221 223 226 229 229 229 230 230 228 224 222 223 223 223 224 225 226 225 223 223 225 225 225 224 223 223 225 227 229 231 231 232 232 232 232 233 235 236 236 236 235 233 232 233 235 235 233 233 232 229 227 224 220 219 220 222 223 225 227 227 227
241 237 221 225 215 203 237 267 233 190 185 200 213 222 231 251 271 279 289 213 192 210 212 211 214 222 229 227 227 224 223 226 226 225 223 222 224 226 227 229 232 233 232 233 231 229 226 224 223 224 226 228 227 224 223 224 225 225 225 225 225 225 226 228 229 231 232 233 233 233 232 230 231 233 234 234 234 236 234 232 234 234 232 232 231 230 229 225 221 221 222 223 224 226 228 228 229
197 210 208 237 237 217 218 247 237 185 191 209 212 226 237 251 268 269 285 305 190 216 212 210 220 222 229 230 228 232 228 229 224 218 221 223 226 228 228 229 232 232 231 232 233 232 229 226 225 226 227 227 226 225 224 224 224 224 225 225 225 226 227 228 229 230 232 232 232 232 232 231 231 230 230 230 232 235 234 233 234 235 233 232 231 230 230 226 222 222 223 224 224 226 230 231 232
200 207 193 199 226 237 229 242 236 187 196 214 209 224 233 241 257 258 269 276 249 241 234 227 233 230 234 233 232 241 240 243 239 227 222 224 228 231 231 230 232 232 231 231 232 231 229 228 227 226 227 226 224 223 222 221 220 222 222 222 223 225 226 226 227 229 230 231 232 231 232 233 232 231 229 229 230 232 233 234 235 235 234 232 230 229 228 226 222 221 222 224 224 225 229 232 233
219 196 206 209 221 243 235 249 266 200 202 221 214 226 232 232 249 251 249 257 251 245 243 241 239 236 232 229 232 236 237 244 248 243 233 229 232 234 234 234 233 231 230 229 228 228 228 229 227 227 228 226 222 220 219 217 216 218 218 219 222 224 225 224 226 227 228 231 231 230 230 232 232 231 231 229 228 229 231 233 234 234 233 231 230 229 228 227 224 222 223 224 223 223 225 228 228
243 206 224 227 219 242 251 255 298 276 225 238 226 231 241 238 245 251 240 235 240 233 232 238 237 238 236 232 237 237 239 248 248 249 244 238 237 239 238 236 233 231 230 229 227 228 229 228 228 229 229 226 224 222 219 218 218 219 218 219 222 224 223 223 225 227 229 231 231 230 230 231 231 231 231 230 228 228 229 230 232 232 231 230 230 231 230 229 226 224 223 221 222 223 225 225 223
243 232 239 258 231 263 284 276 325 320 236 259 265 245 248 248 248 255 241 224 235 228 222 226 224 231 237 232 236 239 243 249 246 246 245 242 242 242 241 237 234 234 235 233 230 230 228 228 228 229 230 228 228 225 222 222 223 223 223 224 224 224 225 226 227 229 230 231 231 230 231 231 232 231 231 231 230 229 229 229 230 230 229 229 230 230 230 229 226 224 222 220 219 221 225 227 222
233 230 231 246 244 235 273 289 355 339 280 307 323 292 266 259 264 268 247 220 234 244 236 233 225 224 231 228 227 229 231 237 242 246 247 246 245 245 243 240 236 235 235 234 232 229 228 229 230 229 230 231 231 229 227 227 227 227 226 228 228 228 230 230 230 231 231 231 231 231 231 231 231 232 232 232 232 232 231 230 230 229 229 228 229 229 228 227 225 224 222 221 219 219 222 225 224
225 223 225 235 228 209 219 261 2 341 317 319 322 303 275 247 252 265 262 242 243 251 250 256 255 246 246 253 246 232 228 230 235 241 245 245 246 246 245 244 241 236 234 235 234 232 232 233 233 232 232 233 233 232 230 228 226 226 226 227 230 231 232 231 230 230 230 230 231 231 232 231 231 232 232 232 233 233 233 233 231 230 229 228 227 228 228 227 226 224 223 222 221 220 221 223 222
226 220 218 220 212 198 169 104 59 359 305 267 247 275 275 243 231 240 251 264 265 261 256 258 261 258 255 258 254 245 238 234 233 236 238 240 244 248 250 250 248 241 238 238 237 237 237 237 237 237 236 236 236 234 231 227 224 223 222 220 222 223 226 226 226 227 227 228 230 232 232 232 231 232 232 232 233 233 234 234 233 231 230 228 227 227 228 228 226 225 224 223 223 223 223 223 222
229 226 206 203 199 194 189 156 127 169 251 240 199 232 275 306 262 244 238 259 265 251 245 251 253 256 253 248 249 249 246 242 240 242 243 244 247 250 253 255 251 248 248 245 242 240 240 241 242 242 242 241 239 236 232 228 224 223 222 221 222 222 224 228 229 230 230 231 232 233 233 232 232 232 233 233 233 234 235 235 234 233 232 230 229 228 228 228 227 227 225 224 225 225 223 224 224
230 341 195 193 196 195 190 174 164 200 260 293 258 226 260 284 263 249 245 265 275 262 249 253 251 250 249 247 246 240 236 236 239 245 247 248 247 246 249 254 254 255 257 253 247 246 247 249 250 249 249 247 244 240 235 230 227 225 224 225 226 227 229 233 234 233 234 234 234 234 233 233 232 232 233 233 234 235 235 235 234 233 233 232 230 229 229 229 229 228 227 226 226 225 223 224 226
165 43 63 123 170 180 167 160 184 217 27 279 263 210 244 264 251 246 240 239 262 266 255 252 253 251 246 245 242 233 231 232 230 235 240 241 244 245 246 252 257 260 262 261 259 261 262 260 257 253 251 250 248 244 239 235 231 229 227 227 229 231 234 237 238 237 237 236 235 235 234 233 233 233 233 234 234 234 234 234 234 233 233 232 231 231 231 231 230 229 227 226 225 225 225 225 226
160 141 86 70 66 67 98 149 164 138 185 235 222 183 230 264 231 216 224 218 234 253 256 248 251 254 251 245 237 227 227 232 230 231 239 243 246 249 250 251 257 263 267 271 273 274 273 270 264 256 252 252 251 248 243 239 236 232 230 230 232 235 237 239 241 241 239 236 235 236 235 235 235 234 235 235 235 235 234 234 234 233 233 232 232 232 232 231 231 230 229 228 227 226 226 226 226
148 120 66 30 34 67 65 59 118 135 223 232 201 186 205 260 238 186 191 218 213 226 255 266 262 258 255 249 236 227 232 254 259 237 229 233 234 237 243 248 263 278 283 283 283 281 280 279 273 265 259 255 253 251 248 245 241 236 234 234 236 238 239 239 239 241 240 237 236 236 236 236 236 236 236 235 236 236 234 234 234 234 233 233 232 232 232 232 231 231 230 230 229 228 228 227 228
137 90 62 15 355 36 55 10 85 181 230 220 181 185 190 226 249 213 223 248 215 210 237 260 263 259 256 252 242 231 239 263 251 213 188 180 174 178 240 277 291 300 305 306 302 296 291 287 281 274 270 265 261 259 256 253 248 241 239 237 238 240 241 240 239 240 240 238 238 238 237 236 236 236 236 236 236 235 233 233 234 234 233 233 233 233 233 233 232 232 231 230 230 230 229 228 227
149 121 126 115 260 276 70 214 199 209 247 225 172 180 192 229 245 242 252 272 270 254 253 261 264 262 260 256 247 240 197 172 188 194 197 197 177 143 307 307 314 326 336 335 326 319 309 300 292 284 281 279 277 272 267 263 257 250 246 242 241 242 243 243 242 242 242 241 240 240 238 237 236 236 235 235 237 235 233 232 232 232 233 233 233 234 234 234 233 232 232 231 231 231 230 228 228
178 171 165 173 190 189 178 193 99 172 266 284 199 177 200 255 249 231 230 247 258 256 256 261 258 252 253 244 227 242 182 144 166 200 217 211 184 30 326 320 341 2 1 355 347 337 325 317 307 294 290 290 287 283 278 272 266 261 255 250 247 245 244 244 244 245 245 244 243 242 241 240 238 238 238 239 239 237 234 233 233 233 234 235 235 234 235 235 234 233 233 232 232 233 232 231 230
185 173 159 176 181 181 186 181 182 182 251 298 248 176 195 223 234 204 196 219 241 242 251 262 255 243 247 254 233 256 216 166 184 201 211 204 147 54 343 355 13 14 10 10 6 353 341 336 325 309 307 306 297 290 285 278 273 270 265 258 253 249 247 247 246 247 247 247 246 245 244 243 242 242 243 244 243 240 237 236 235 235 235 236 236 235 236 235 235 234 234 234 234 234 234 233 233
189 139 149 198 190 171 188 176 164 143 89 274 210 208 219 216 259 252 227 256 273 273 273 283 282 260 256 306 290 273 267 239 198 172 167 63 57 78 88 65 32 14 13 14 12 5 356 351 343 331 326 324 317 304 294 286 279 275 271 266 261 255 251 250 249 249 249 249 248 248 247 247 246 246 246 246 245 242 240 239 237 237 237 237 236 236 236 235 235 234 233 234 234 235 235 234 234
165 154 174 200 105 125 132 272 126 109 225 223 185 239 266 281 279 268 256 266 276 283 276 250 263 263 232 244 250 246 228 183 178 169 129 57 49 103 125 114 49 19 11 6 7 7 0 355 351 347 345 344 340 330 318 306 292 281 274 270 267 262 257 253 252 253 252 251 251 251 251 251 249 249 248 247 247 245 243 242 240 240 239 238 237 236 236 236 235 234 233 234 234 235 236 235 235
149 175 171 128 47 98 135 180 140 141 230 236 203 229 231 178 259 280 261 241 241 257 267 241 247 265 247 239 239 230 201 176 171 141 108 101 113 126 136 139 96 9 0 356 357 358 357 355 348 344 351 352 352 348 340 330 315 300 289 279 272 267 263 260 257 256 256 254 253 253 252 252 252 251 250 250 249 248 246 244 243 242 241 239 238 237 237 236 235 234 234 235 236 236 236 236 236
144 164 165 146 140 191 169 173 174 176 214 242 214 224 216 192 233 258 247 227 217 220 245 248 247 250 249 247 233 189 180 165 139 124 127 143 147 141 136 98 34 357 348 345 345 343 346 350 343 338 342 349 353 348 342 340 330 317 309 298 285 276 269 266 263 261 258 255 254 255 254 254 254 253 252 252 251 250 249 247 244 243 242 241 240 238 237 236 235 235 235 235 236 236 237 238 237
72 135 172 190 202 194 178 172 178 179 195 220 207 209 223 215 224 233 232 229 225 228 243 249 242 233 235 236 206 167 162 150 143 153 166 175 170 140 95 44 15 359 347 340 336 331 329 333 335 334 332 341 350 345 338 339 335 327 320 312 302 291 279 273 269 265 262 258 257 257 256 256 256 255 255 254 253 252 251 250 248 245 243 242 241 240 238 237 236 236 236 236 237 237 237 239 239
145 158 183 201 196 154 136 160 161 144 165 214 233 235 251 240 216 217 223 227 230 243 260 265 257 231 223 214 176 161 156 151 159 178 180 177 162 101 62 16 359 355 348 340 334 327 319 318 323 326 324 333 347 346 338 335 334 331 326 321 315 305 293 284 277 271 266 263 261 259 258 258 258 258 258 256 255 254 253 253 251 249 246 244 242 241 239 238 236 237 237 238 238 238 238 239 241
174 183 184 187 180 140 138 192 180 146 166 179 197 240 255 245 202 205 218 224 225 234 244 245 221 174 163 172 167 157 154 160 172 175 164 158 149 117 42 0 353 349 342 332 328 325 316 311 316 318 316 328 344 345 336 332 333 331 329 327 321 313 304 295 286 279 273 268 266 262 261 260 258 259 260 259 259 258 257 255 253 252 250 248 245 243 241 238 236 237 238 238 239 238 239 240 241